Regional Weather Roundup
Issued by NWS

Current Version | Previous Version | Text Only | Print | Product List | Glossary On
Versions: 1 2 3 4 5 6 7 8 9 10 11 12 13 14 15 16 17 18 19 20 21 22 23 24 25 26 27 28 29 30 31 32 33 34 35 36 37 38 39 40 41 42 43 44 45 46 47 48 49 50
000
ASUS42 KKEY 300610
RWRKEY

FLORIDA REGIONAL WEATHER ROUNDUP FOR THE FLORIDA KEYS
NATIONAL WEATHER SERVICE KEY WEST FLORIDA
200 AM EDT THU MAR 30 2017

...SOUTH FLORIDA AND THE KEYS...

CITY           SKY/WX    TMP DP  RH WIND       PRES   REMARKS
FORT MYERS     PTCLDY    73  67  81 CALM      30.01F
SW REGIONAL AP CLEAR     70  64  81 CALM      30.01F
NAPLES         CLEAR     71  68  90 CALM      30.01F
MIAMI          PTCLDY    73  63  70 E6        30.03R
WEST KENDALL   CLEAR     66  63  90 CALM      30.02S
HOMESTEAD      CLEAR     72  64  77 E5        30.01F
MARATHON       CLEAR     76  66  71 VRB7      30.00F
BOCA CHICA NAS PTCLDY    75  64  68 E14       30.00S
KEY WEST INTL  PTCLDY    76  65  68 E13       30.01S

...INTERNATIONAL WEATHER...

CITY           SKY/WX    TMP DP  RH WIND       PRES   REMARKS
NASSAU BAHAMAS PTCLDY    63  57  82 CALM      30.05F
CANCUN MEXICO  PTCLDY    79  70  73 SE16      29.92F
COZUMEL MEXICO   N/A    N/A N/A N/A MISG        N/A

ADJACENT COASTAL WATERS...

STATION/POSITION TIME  SKY/WX   TEMP    WIND        PRES    WAVE
                                AIR SEA DIR/SP/G            HT/PER
                 (UTC)          (F)     (DEG/KT/KT) (MB)    (FT/S)
PULASKI SHOAL LI 0600            76      90/ 13/ 15 1015.6F
SAND KEY         0550            76     120/ 15/ 17 1016.5F
LONG KEY         0500            76 79  120/ 11/ 13 1016.5F
MOLASSES REEF    NOT AVBL
FOWEY ROCKS      0600            76 77  100/ 14/ 15 1017.0F
Buoy 42097       0600                                 N/A     2/ 7

$$



USA.gov is the U.S. government's official web portal to all federal, state and local government web resources and services.